Regional Weather Roundup
Issued by NWS Goodland, KS

Home | Current Version | Previous Version | Graphics & Text | Print | Product List | Glossary On
Versions: 1 2 3 4 5 6 7 8 9 10 11 12 13 14 15 16 17 18 19 20 21 22 23 24 25 26 27 28 29 30 31 32 33 34 35 36 37 38 39 40 41 42 43 44 45 46 47 48 49 50
000
ASUS43 KGLD 230108
RWRGLD

GOODLAND FORECAST AREA HOURLY WEATHER ROUNDUP
NATIONAL WEATHER SERVICE GOODLAND KS
700 PM MDT MON MAY 22 2017

...OFFICIAL OBSERVATIONS...

CITY           SKY/WX    TMP DP  RH WIND       PRES   REMARKS
GOODLAND KS    LGT RAIN  50  47  89 NW22G31   30.07R
HILL CITY KS   CLOUDY    70  44  39 N13       29.92R
IMPERIAL NEB   CLOUDY    55  43  63 NW18      30.04R
MCCOOK NEB     LGT RAIN  58  45  62 NW17      29.99R
AKRON CO       CLOUDY    47  42  83 NW12      30.12S
BURLINGTON CO  CLOUDY    51  46  83 N17G28    30.10R
LIMON CO       LGT RAIN  44  40  85 N32G40    30.16R
$$

...UNOFFICIAL OBSERVATIONS...

CITY           SKY/WX    TMP DP  RH WIND       PRES   REMARKS
LENORA KS        N/A     66  32  28 MISG        N/A
NORTON KS      PTCLDY    63  41  45 NW8       29.93R
SHARON SPRINGS   N/A     53  48  83 NW29G43     N/A
TRENTON NEB      N/A     54  32  43 NW9         N/A
KIT CARSON CO    N/A     52  44  75 MISG        N/A
YUMA CO        CLOUDY    46  34  61 W7        30.09F
$$



USA.gov is the U.S. government's official web portal to all federal, state and local government web resources and services.